2023-003B (55134 NORAD) Tracking and Keplerian Element Data

This shows tracking and keplerian element data for the satellite.

Feedback or suggestion? Click here.




ElementValue
Catalog55134
Name2023-003B
Epoch Orbit1153
Epoch Day85.14588594
Epoch Year2023
RAAN172.662
Inclination97.2615
Eccentricity0.0013115
Argument of Perigee29.384
Mean Anonmoly31.7036
Mean Motion15.22818607
Decay Rate0.0001711
L11 55134U 23003B 23085.14588594 .00017110 00000+0 73173-3 0 9991
L22 55134 97.2615 172.6620 0013115 29.3840 31.7036 15.22818607 11531



Live tracking and technical data element details for 2023-003B (NORAD 55134). 2023-003B can be tracked NOW for your location showing map with azimuth and elevation plus other details from your city location.







IsCatalogInMostPopularTable: catalog: 55134, numindb: 9
Update: records affected: 1



GetName: 55134 2023-003B

Hit Count: updated at: Mon, 27 Mar 2023 06:32:20 GMT